Weather History for Farmington, MO

Change the Weather History Date:

Thursday, February 7, 2013

  Actual Average Record
Temperature  
Mean Temperature 48 °F -  
Max Temperature 64 °F 43 °F 64 °F (2013)
Min Temperature 33 °F 26 °F -5 °F (2014)
Degree Days  
Heating Degree Days 16    
Moisture  
Dew Point 38 °F    
Average Humidity 70    
Maximum Humidity 94    
Minimum Humidity 51    
Precipitation  
Precipitation 0.28 in - - ()
Sea Level Pressure  
Sea Level Pressure 29.96 in    
Wind  
Wind Speed 7 mph (SW)    
Max Wind Speed 15 mph    
Max Gust Speed 22 mph    
Visibility 10 miles    
Events      
Averages and records for this station are not official NWS values.
T = Trace of Precipitation, MM = Missing Value Source: NWS Daily Summary

Daily Weather History Graph

Daily Weather History Graph

Search for Another Location

Airport:

Trip Planner

Search our weather history database for the weather conditions in past years. The results will help you decide how hot, cold, wet, or windy it might be!

Date:

Astronomy

Feb. 07, 2013 Rise Set
Actual Time 6:59 AM CST 5:32 PM CST
Civil Twilight 6:32 AM CST 5:59 PM CST
Nautical Twilight 6:01 AM CST 6:30 PM CST
Astronomical Twilight 5:30 AM CST 7:01 PM CST
Moon 4:37 AM CST (2/7) 2:58 PM CST (2/7)
Length of Visible Light 11h 27m
Length of Day
10h 32m
Waning Crescent, 9% of the Moon is Illuminated
Feb 7
Waning Crescent
Feb 10
New
Feb 17
First Quarter
Feb 25
Full
Mar 4
Last Quarter

Hourly Weather History & Observations

Time (CST) Temp. Windchill Dew Point Humidity Pressure Visibility Wind Dir Wind Speed Gust Speed Precip Events Conditions
12:35 AM 41.0 °F 37.1 °F 28.4 °F 61% 30.07 in 10.0 mi SSE 5.8 mph - N/A   Clear
12:55 AM 39.2 °F 35.0 °F 28.4 °F 65% 30.06 in 10.0 mi SSE 5.8 mph - N/A   Clear
1:15 AM 39.2 °F 37.0 °F 26.6 °F 61% 30.05 in 10.0 mi South 3.5 mph - N/A   Clear
1:35 AM 39.2 °F 34.2 °F 26.6 °F 61% 30.05 in 10.0 mi SSE 6.9 mph - N/A   Clear
1:55 AM 39.2 °F 35.9 °F 26.6 °F 61% 30.05 in 10.0 mi South 4.6 mph - N/A   Clear
2:15 AM 37.4 °F 34.9 °F 26.6 °F 65% 30.04 in 10.0 mi SSE 3.5 mph - N/A   Clear
2:35 AM 37.4 °F - 26.6 °F 65% 30.03 in 10.0 mi Calm Calm - N/A   Clear
2:55 AM 37.4 °F - 24.8 °F 60% 30.03 in 10.0 mi Calm Calm - N/A   Clear
3:15 AM 37.4 °F - 28.4 °F 70% 30.03 in 10.0 mi Calm Calm - N/A   Clear
3:35 AM 37.4 °F - 26.6 °F 65% 30.02 in 10.0 mi Calm Calm - N/A   Clear
3:55 AM 37.4 °F 34.9 °F 28.4 °F 70% 30.01 in 10.0 mi SSW 3.5 mph - N/A   Partly Cloudy
4:15 AM 37.4 °F 33.8 °F 26.6 °F 65% 30.00 in 10.0 mi South 4.6 mph - N/A   Partly Cloudy
4:35 AM 37.4 °F 32.8 °F 26.6 °F 65% 30.00 in 10.0 mi South 5.8 mph - N/A   Clear
4:55 AM 33.8 °F - 24.8 °F 70% 29.99 in 10.0 mi Calm Calm - N/A   Mostly Cloudy
5:15 AM 37.4 °F - 26.6 °F 65% 30.00 in 10.0 mi Calm Calm - N/A   Overcast
5:35 AM 39.2 °F 35.0 °F 30.2 °F 70% 30.00 in 10.0 mi South 5.8 mph - N/A   Overcast
5:55 AM 39.2 °F 35.9 °F 28.4 °F 65% 30.00 in 10.0 mi SSE 4.6 mph - N/A   Overcast
6:15 AM 39.2 °F 35.9 °F 28.4 °F 65% 30.00 in 10.0 mi SSE 4.6 mph - N/A   Overcast
6:35 AM 39.2 °F 35.9 °F 28.4 °F 65% 30.00 in 10.0 mi SSE 4.6 mph - N/A   Overcast
6:55 AM 39.2 °F 35.0 °F 28.4 °F 65% 29.99 in 10.0 mi SSE 5.8 mph - N/A   Overcast
7:15 AM 39.2 °F 37.0 °F 28.4 °F 65% 29.99 in 10.0 mi South 3.5 mph - N/A   Overcast
7:35 AM 41.0 °F 36.4 °F 30.2 °F 65% 29.99 in 10.0 mi South 6.9 mph - N/A   Overcast
7:55 AM 42.8 °F 37.5 °F 30.2 °F 61% 29.98 in 10.0 mi South 9.2 mph - N/A   Mostly Cloudy
8:15 AM 42.8 °F 38.6 °F 30.2 °F 61% 29.98 in 10.0 mi South 6.9 mph - N/A   Scattered Clouds
8:35 AM 44.6 °F 39.7 °F 32.0 °F 61% 29.98 in 10.0 mi South 9.2 mph - N/A   Clear
8:55 AM 46.4 °F 41.1 °F 32.0 °F 57% 29.98 in 10.0 mi South 11.5 mph - N/A   Clear
9:15 AM 48.2 °F - 33.8 °F 58% 29.98 in 10.0 mi South 12.7 mph - N/A   Clear
9:35 AM 50.0 °F - 33.8 °F 54% 29.97 in 10.0 mi South 10.4 mph - N/A   Clear
9:55 AM 51.8 °F - 35.6 °F 54% 29.97 in 10.0 mi South 9.2 mph - N/A   Mostly Cloudy
10:15 AM 51.8 °F - 35.6 °F 54% 29.97 in 10.0 mi South 12.7 mph - N/A   Overcast
10:35 AM 53.6 °F - 37.4 °F 54% 29.98 in 10.0 mi South 11.5 mph - N/A   Mostly Cloudy
10:55 AM 57.2 °F - 39.2 °F 51% 29.97 in 10.0 mi SW 12.7 mph 18.4 mph N/A   Scattered Clouds
11:15 AM 57.2 °F - 39.2 °F 51% 29.97 in 10.0 mi SSW 11.5 mph - N/A   Overcast
11:35 AM 57.2 °F - 41.0 °F 55% 29.96 in 10.0 mi South 8.1 mph - N/A   Overcast
11:55 AM 59.0 °F - 42.8 °F 55% 29.94 in 10.0 mi SSW 11.5 mph - N/A   Overcast
12:15 PM 57.2 °F - 42.8 °F 59% 29.93 in 10.0 mi SW 9.2 mph - N/A   Overcast
12:35 PM 57.2 °F - 44.6 °F 63% 29.92 in 10.0 mi SW 9.2 mph - N/A   Overcast
12:55 PM 59.0 °F - 44.6 °F 59% 29.90 in 10.0 mi SSW 8.1 mph - N/A   Scattered Clouds
1:15 PM 60.8 °F - 44.6 °F 55% 29.89 in 10.0 mi South 8.1 mph - N/A   Partly Cloudy
1:35 PM 60.8 °F - 46.4 °F 59% 29.89 in 10.0 mi South 11.5 mph - N/A   Partly Cloudy
1:55 PM 60.8 °F - 44.6 °F 55% 29.88 in 10.0 mi SW 11.5 mph - N/A   Scattered Clouds
2:15 PM 62.6 °F - 46.4 °F 55% 29.87 in 10.0 mi South 12.7 mph 18.4 mph N/A   Overcast
2:35 PM 64.4 °F - 48.2 °F 56% 29.87 in 10.0 mi SSW 13.8 mph 19.6 mph N/A   Overcast
2:55 PM 62.6 °F - 46.4 °F 55% 29.86 in 10.0 mi SSW 11.5 mph - N/A   Mostly Cloudy
3:15 PM 62.6 °F - 46.4 °F 55% 29.87 in 10.0 mi SSW 10.4 mph - N/A   Overcast
3:35 PM 59.0 °F - 48.2 °F 67% 29.88 in 8.0 mi West 8.1 mph - 0.01 in   Overcast
3:55 PM 55.4 °F - 50.0 °F 82% 29.89 in 9.0 mi WNW 9.2 mph - 0.05 in   Overcast
4:15 PM 53.6 °F - 50.0 °F 88% 29.89 in 10.0 mi West 6.9 mph - 0.02 in   Overcast
4:35 PM 53.6 °F - 50.0 °F 88% 29.89 in 7.0 mi West 4.6 mph - 0.04 in   Overcast
4:55 PM 51.8 °F - 48.2 °F 88% 29.87 in 8.0 mi SSE 3.5 mph - 0.07 in   Overcast
5:35 PM 51.8 °F - 50.0 °F 94% 29.90 in 5.0 mi Calm Calm - 0.02 in   Mostly Cloudy
5:55 PM 51.8 °F - 50.0 °F 94% 29.91 in 5.0 mi WSW 3.5 mph - 0.05 in   Overcast
6:15 PM 51.8 °F - 50.0 °F 94% 29.91 in 7.0 mi West 4.6 mph - 0.01 in   Overcast
6:35 PM 51.8 °F - 50.0 °F 94% 29.91 in 7.0 mi West 3.5 mph - 0.01 in   Mostly Cloudy
6:55 PM 51.8 °F - 50.0 °F 94% 29.92 in 9.0 mi WNW 6.9 mph - 0.03 in   Overcast
7:15 PM 51.8 °F - 46.4 °F 82% 29.93 in 10.0 mi WNW 12.7 mph 21.9 mph 0.01 in   Overcast
7:35 PM 50.0 °F - 46.4 °F 87% 29.93 in 10.0 mi WNW 6.9 mph - 0.03 in   Overcast
7:55 PM 48.2 °F - 46.4 °F 93% 29.94 in 10.0 mi NW 8.1 mph - 0.07 in   Overcast
8:15 PM 48.2 °F - 46.4 °F 93% 29.94 in 10.0 mi NW 9.2 mph - 0.01 in   Overcast
8:35 PM 48.2 °F - 44.6 °F 87% 29.95 in 10.0 mi WNW 12.7 mph - 0.01 in   Overcast
8:55 PM 48.2 °F - 44.6 °F 87% 29.95 in 10.0 mi NW 9.2 mph 19.6 mph 0.01 in   Overcast
9:15 PM 46.4 °F 40.1 °F 42.8 °F 87% 29.97 in 10.0 mi NW 15.0 mph 19.6 mph N/A   Overcast
9:35 PM 46.4 °F 40.7 °F 42.8 °F 87% 29.97 in 10.0 mi NW 12.7 mph 21.9 mph N/A   Overcast
9:55 PM 44.6 °F 38.4 °F 41.0 °F 87% 29.98 in 10.0 mi NW 12.7 mph 21.9 mph N/A   Overcast
10:15 PM 44.6 °F 38.1 °F 41.0 °F 87% 30.00 in 10.0 mi NW 13.8 mph - N/A   Overcast
10:35 PM 44.6 °F 38.1 °F 39.2 °F 81% 30.01 in 10.0 mi NW 13.8 mph 20.7 mph N/A   Overcast
10:55 PM 42.8 °F 37.5 °F 39.2 °F 87% 30.01 in 10.0 mi NW 9.2 mph 16.1 mph N/A   Overcast
11:15 PM 42.8 °F 38.0 °F 39.2 °F 87% 30.02 in 10.0 mi NW 8.1 mph 17.3 mph N/A   Overcast
11:35 PM 42.8 °F 36.6 °F 39.2 °F 87% 30.03 in 10.0 mi NNW 11.5 mph 17.3 mph N/A   Overcast
11:55 PM 42.8 °F 35.4 °F 37.4 °F 81% 30.03 in 10.0 mi NW 15.0 mph 21.9 mph N/A   Overcast